Terminal Aerodrome Forecast
Issued by NWS

Home | Current Version | Previous Version | Graphics & Text | Print | Product List | Glossary On
Versions: 1 2 3 4 5 6 7 8 9 10 11 12 13
000
FTUS45 KGGW 302300
TAFSDY
TAF
KSDY 302320Z 3100/3124 31008KT P6SM VCTS BKN110CB
     FM310600 VRB05KT P6SM BKN140
     FM311800 30008KT P6SM VCSH BKN130
      AMD LTD TO CLD VIS AND WIND=

USA.gov is the U.S. government's official web portal to all federal, state and local government web resources and services.